This is the latest recevied weather packets stored in our database for station/object N9CQL. If no packets are shown the sender has not sent any weather packets the latest 1 day(s).
| Time | Temp. | Humidity | Pressure | Rain* | Wind** | Luminosity | Snow |
|---|---|---|---|---|---|---|---|
| 1777978068 | 11.11° C | 58% | 1005.5 hPa | 0 mm | 0 m/s | 0 W/m² | - |
| 1777977766 | 11.67° C | 60% | 1005.8 hPa | 0 mm | 0 m/s | 0 W/m² | - |
| 1777977462 | 11.67° C | 59% | 1005.9 hPa | 0 mm | 0 m/s | 0 W/m² | - |
| 1777977160 | 11.67° C | 59% | 1004.9 hPa | 0 mm | 0 m/s | 0 W/m² | - |
| 1777976857 | 11.67° C | 56% | 1004.5 hPa | 0 mm | 0 m/s | 0 W/m² | - |
| 1777976555 | 11.67° C | 56% | 1004.7 hPa | 0 mm | 0 m/s | 0 W/m² | - |
| 1777976254 | 11.67° C | 55% | 1004.6 hPa | 0 mm | 0 m/s | 0 W/m² | - |
| 1777975950 | 11.67° C | 57% | 1004.6 hPa | 0 mm | 0 m/s | 0 W/m² | - |
| 1777975646 | 12.22° C | 54% | 1004.5 hPa | 0 mm | 0 m/s | 0 W/m² | - |
| 1777975343 | 12.22° C | 55% | 1004.7 hPa | 0 mm | 0 m/s | 0 W/m² | - |
| 1777975038 | 12.22° C | 53% | 1005 hPa | 0 mm | 0 m/s | 0 W/m² | - |
| 1777974737 | 12.22° C | 53% | 1004.8 hPa | 0 mm | 0 m/s | 0 W/m² | - |
| 1777974432 | 12.22° C | 54% | 1005.1 hPa | 0 mm | 0 m/s | 0 W/m² | - |
| 1777974129 | 12.22° C | 53% | 1004.9 hPa | 0 mm | 0 m/s | 0 W/m² | - |
| 1777973825 | 12.78° C | 53% | 1004.8 hPa | 0 mm | 0 m/s | 0 W/m² | - |
| 1777973522 | 12.78° C | 58% | 1005.1 hPa | 0 mm | 0 m/s | 0 W/m² | - |
| 1777973219 | 12.78° C | 56% | 1004.6 hPa | 0 mm | 0 m/s | 0 W/m² | - |
| 1777972918 | 13.33° C | 58% | 1004.8 hPa | 0 mm | 0 m/s | 0 W/m² | - |
| 1777972614 | 13.89° C | 52% | 1004.5 hPa | 0 mm | 0 m/s | 0 W/m² | - |
| 1777972312 | 13.89° C | 50% | 1004.3 hPa | 0 mm | 0 m/s | 0 W/m² | - |
| 1777972010 | 13.89° C | 49% | 1004.5 hPa | 0 mm | 0 m/s | 0 W/m² | - |
| 1777971708 | 14.44° C | 48% | 1004.2 hPa | 0 mm | 0 m/s | 0 W/m² | - |
| 1777971405 | 14.44° C | 48% | 1004.2 hPa | 0 mm | 0 m/s | 0 W/m² | - |
| 1777971103 | 14.44° C | 48% | 1003.9 hPa | 0 mm | 0 m/s | 0 W/m² | - |
| 1777970800 | 14.44° C | 47% | 1003.9 hPa | 0 mm | 0 m/s | 0 W/m² | - |
* Rain latest hour (hover to see other rain measurements)
** Current wind speed in m/s (hover to see current wind gust speed)